ENBL

Details ICAO ENBL
Name BRINGELAND
Region Norway
Timezone Europe/Oslo (UTC+2.0)
Plans Departing 11
Arriving 19
Stats Elevation 1,046 ft / 319 m (AMSL)
Location 61.391815° 5.761330°
Runways 1
Magnetic Variation 1.117° E
Sunrise 2018-05-24 02:28:39 UTC / 2018-05-24 04:28:39 Local
Sunset 2018-05-24 20:41:48 UTC / 2018-05-24 22:41:48 Local
Advertisement - Login to hide

Runways

ID Width Length Bearing (true) Bearing (mag) Surface Threshold Offset Overrun Length
07 98 ft / 30 m 3,107 ft / 947 m 73.80° 72.68° Asphalt 98 ft / 30 m 207 ft / 63 m
25 98 ft / 30 m 3,107 ft / 947 m 253.81° 252.69° Asphalt 148 ft / 45 m 66 ft / 20 m

Approach Navaids

Runway Type Ident Frequency Range Bearing (true) Bearing (mag) Slope Elevation
07 Localiser BL 110.70 MHz 50 nm / 93 km 75.00° 73.88° - 1,091 ft / 333 m (AMSL)
07 DME BL 110.70 MHz 50 nm / 93 km - - - 1,091 ft / 333 m (AMSL)
25 Localiser FD 109.35 MHz 50 nm / 93 km 250.00° 248.88° - 1,054 ft / 321 m (AMSL)
25 DME FD 109.35 MHz 50 nm / 93 km - - - 1,054 ft / 321 m (AMSL)

Map

Weather


0- 5 10 15 20 25 30 35+ Temperature / ° C

Clouds and Precipitation
Forecast for 2018-05-24 00:00 UTC. Updated 5 hours ago

Ground ~20,000 ft ~40,000 ft Winds

METAR

ENBL 240420Z 20003KT 0100 FG VV001 07/07 Q1028

TAF

Not found

Frequencies

Tower 118.45 MHz AFIS
Warning: Do not use this data for real-world aviation or navigation. No guarantee of current accuracy is given.